Погода в Павловском

Россия / Владимирская область     56°19′14″N   40°28′21″E
темп.,
°C
ветер,
м/с
пор.,
м/с
влажн.,
%
обл.,
%
осадки,
мм/ч
давл.,
гПа
погр.,
м
13 апреля, вт
вт1300:00+6вюв41094100 0.0 1030259
03:00+6юв3109762 0.0 1029193
06:00+6юв3995100 0.0 1029173
09:00+13ююв5106586 0.0 1028373
12:00+18ю6841100 0.0 1027908
15:00+20ю583399 0.0 10261824
18:00+17ююв37456 0.0 1025144
21:00+11ююв385985 0.0 1025129
14 апреля, ср
ср1400:00+10ююв312662 0.0 1025209
03:00+8ююв39730 0.0 1024142
06:00+7ююв38758 0.0 1024126
09:00+13ююв4857100 0.0 1023343
12:00+17ююв5840100 0.0 10221075
15:00+19ю5733100 0.0 10201761
18:00+16ююв3550100 0.0 101984
21:00+12ююв336192 0.0 102035
15 апреля, чт
чт1500:00+9ююв2266100 0.0 101915
03:00+8ююв2268100 0.0 101910
06:00+8юв227171 0.0 101910
09:00+13вюв22545 0.0 1019249
12:00+17вюв224145 0.0 1018940
15:00+19в223452 0.0 10172065
18:00+16всв2347100 0.0 101759
21:00+11св3462100 0.0 101861
16 апреля, пт
пт1600:00+9св5118591 0.0 1019333
03:00+7св5108994 0.0 1020339
06:00+6св51090100 0.0 1020377
09:00+8св687793 0.0 1021573
12:00+12св676297 0.0 1022912
15:00+12св676184 0.0 10221037
18:00+10св687131 0.0 1024868
21:00+7св397966 0.0 1025266
17 апреля, сб
сб1700:00+5св4116195 0.0 1026322
03:00+3св411695 0.0 1027279
06:00+2св412720 0.0 1029303
09:00+7св610500 0.0 1030873
12:00+10всв68415 0.0 10301527
15:00+10всв68385 0.0 10301662
18:00+8всв58390 0.0 10311017
21:00+4св41151100 0.0 1033270